DW1824 Weather Reports


time (UTC)temp
F
wind
direction
speed
knots
gust
knots
rain 1hr
in
rain 24hr
in
rain mn
in
humidity
%
barometer
mb
20260508092402 67 350 2.6 5.2 0.00 0.00 0.00 84 1013.7
20260508091327 67 296 1.7 7.0 0.00 0.00 0.00 84 1013.5
20260508090352 67 49 1.7 5.2 0.00 0.00 0.00 83 1013.0
20260508085340 67 340 0.9 3.5 0.00 0.00 0.00 84 1013.2
20260508084332 67 47 0.0 3.5 0.00 0.00 0.00 83 1013.0
20260508083341 67 64 0.0 3.5 0.00 0.00 0.00 83 1012.6
20260508082350 67 22 0.0 3.5 0.00 0.00 0.00 83 1012.8
20260508081337 67 308 0.0 2.6 0.00 0.00 0.00 84 1013.6
20260508080342 67 316 0.0 0.0 0.00 0.00 0.00 83 1013.7
20260508075351 67 17 0.0 2.6 0.00 0.00 0.00 84 1013.4
20260508074335 67 2 0.0 1.7 0.00 0.00 0.00 84 1013.4
20260508073342 67 4 0.0 2.6 0.00 0.00 0.00 84 1013.7
20260508072333 67 340 0.9 3.5 0.00 0.00 0.00 84 1013.9
20260508071340 67 345 1.7 4.3 0.00 0.00 0.00 83 1014.0
20260508070325 67 332 0.9 3.5 0.00 0.00 0.00 84 1014.1
20260508064339 67 8 0.9 3.5 0.00 0.00 0.00 84 1014.1
20260508063342 67 9 1.7 3.5 0.00 0.00 0.00 84 1014.0
20260508062329 67 333 0.0 3.5 0.00 0.00 0.00 85 1014.0
20260508061341 66 350 0.9 2.6 0.00 0.00 0.00 85 1013.9
20260508060325 66 11 0.9 3.5 0.00 0.00 0.00 85 1013.5
20260508055329 66 323 0.9 2.6 0.00 0.00 0.00 85 1013.7
20260508054337 66 326 0.0 2.6 0.00 0.00 0.00 85 1013.7
20260508053342 66 314 0.0 1.7 0.00 0.00 0.00 84 1013.8
20260508052352 67 333 0.0 0.9 0.00 0.00 0.00 83 1013.7
20260508051337 67 333 0.0 0.9 0.00 0.00 0.00 83 1013.9
20260508050342 67 340 0.0 1.7 0.00 0.00 0.00 83 1013.9
20260508045334 67 304 0.9 2.6 0.00 0.00 0.00 82 1014.1
20260508044400 67 356 0.9 3.5 0.00 0.00 0.00 81 1014.0
20260508043342 67 340 0.9 3.5 0.00 0.00 0.00 82 1014.1
20260508042327 67 345 1.7 3.5 0.00 0.00 0.00 81 1014.2
20260508041337 67 307 0.9 4.3 0.00 0.00 0.00 81 1014.4
20260508040340 67 9 0.9 3.5 0.00 0.00 0.00 80 1014.0
20260508035327 67 358 1.7 5.2 0.00 0.00 0.00 80 1013.8
20260508034338 67 304 2.6 5.2 0.00 0.00 0.00 80 1014.1
20260508033402 68 322 1.7 4.3 0.00 0.00 0.00 80 1013.8
20260508032326 68 4 1.7 2.6 0.00 0.00 0.00 79 1013.7
20260508031333 68 350 0.0 1.7 0.00 0.00 0.00 78 1013.1
20260508030337 68 60 0.9 1.7 0.00 0.00 0.00 78 1013.1
20260508025326 68 24 0.0 3.5 0.00 0.00 0.00 77 1013.9
20260508024332 68 2 0.9 4.3 0.00 0.00 0.00 77 1014.2
20260508023338 68 334 2.6 5.2 0.00 0.00 0.00 77 1014.3
20260508022328 68 295 1.7 7.0 0.00 0.00 0.00 77 1014.3
20260508021335 69 299 1.7 5.2 0.00 0.00 0.00 77 1014.3
20260508020337 69 25 1.7 7.0 0.00 0.00 0.00 77 1014.0
20260508015343 69 323 2.6 5.2 0.00 0.00 0.00 77 1014.2
20260508014350 69 329 1.7 7.0 0.00 0.00 0.00 77 1014.3
20260508013331 69 322 1.7 7.0 0.00 0.00 0.00 76 1014.3
20260508012337 70 310 1.7 5.2 0.00 0.00 0.00 76 1014.1
20260508011343 70 327 2.6 7.0 0.00 0.00 0.00 75 1014.0
20260508010331 71 9 1.7 9.6 0.00 0.00 0.00 75 1014.2
20260508005338 71 316 1.7 5.2 0.00 0.00 0.00 75 1014.2
20260508004346 71 354 1.7 5.2 0.00 0.00 0.00 74 1013.8
20260508003351 72 276 2.6 7.0 0.00 0.00 0.00 74 1014.1
20260508002339 73 15 2.6 5.2 0.00 0.00 0.00 73 1014.1
20260508001327 73 27 1.7 7.0 0.00 0.00 0.00 73 1014.0
20260508000334 74 294 3.5 9.6 0.00 0.00 0.00 71 1014.0
20260507235359 75 315 3.5 10.4 0.00 0.00 0.00 71 1014.3
20260507234328 76 285 4.3 8.7 0.00 0.00 0.00 72 1014.5
20260507233332 76 8 0.9 3.5 0.00 0.00 0.00 73 1014.3
20260507232400 76 19 1.7 3.5 0.00 0.00 0.00 73 1014.4
20260507231326 76 4 0.0 7.0 0.00 0.00 0.00 72 1014.1
20260507230330 76 77 2.6 8.7 0.00 0.00 0.00 71 1014.1
20260507225333 77 17 0.9 7.0 0.00 0.00 0.00 72 1014.0
20260507224342 77 15 3.5 7.8 0.00 0.00 0.00 71 1013.8
20260507223347 77 2 3.5 7.8 0.00 0.00 0.00 71 1013.6
20260507222338 77 360 1.7 9.6 0.00 0.00 0.00 71 1013.5
20260507221328 77 350 3.5 8.7 0.00 0.00 0.00 70 1013.6
20260507220333 77 25 1.7 6.1 0.00 0.00 0.00 71 1013.5
20260507215339 77 65 1.7 7.8 0.00 0.00 0.00 71 1013.6
20260507214327 77 50 1.7 7.8 0.00 0.00 0.00 71 1013.8
20260507213333 77 21 0.9 8.7 0.00 0.00 0.00 70 1013.9
20260507212325 77 60 1.7 8.7 0.00 0.00 0.00 69 1014.0
20260507211332 78 8 2.6 8.7 0.00 0.00 0.00 68 1014.2
20260507210355 78 56 2.6 8.7 0.00 0.00 0.00 70 1014.2
20260507205339 78 340 5.2 11.3 0.00 0.00 0.00 68 1014.4
20260507204327 78 6 2.6 9.6 0.00 0.00 0.00 71 1014.5
20260507203331 77 24 4.3 8.7 0.00 0.00 0.00 72 1014.6
20260507202356 77 331 4.3 8.7 0.00 0.00 0.00 72 1014.6
20260507201402 76 2 3.5 9.6 0.00 0.00 0.00 71 1014.7
20260507200326 76 40 4.3 11.3 0.00 0.00 0.00 70 1014.7
20260507195351 76 296 3.5 7.8 0.00 0.00 0.00 72 1014.9
20260507194339 75 324 3.5 9.6 0.00 0.00 0.00 72 1015.0
20260507193339 75 15 4.3 10.4 0.00 0.00 0.00 72 1014.9
20260507192325 74 317 2.6 10.4 0.00 0.00 0.00 73 1015.1
20260507191332 73 52 3.5 8.7 0.00 0.00 0.00 73 1015.4
20260507190356 73 5 4.3 10.4 0.00 0.00 0.00 74 1015.8
20260507185324 72 18 3.5 9.6 0.00 0.01 0.00 75 1015.9
20260507184350 72 13 3.5 9.6 0.00 0.01 0.00 77 1016.1
20260507183333 71 314 5.2 10.4 0.00 0.01 0.00 76 1016.4
20260507182401 70 350 4.3 13.9 0.00 0.01 0.00 77 1016.5
20260507181329 70 345 5.2 11.3 0.00 0.01 0.00 77 1016.4
20260507180353 70 335 4.3 11.3 0.00 0.01 0.00 77 1016.6
20260507175356 70 323 5.2 11.3 0.00 0.02 0.00 76 1016.5
20260507174342 70 333 4.3 11.3 0.00 0.02 0.00 77 1016.7
20260507173327 69 25 3.5 13.0 0.00 0.02 0.00 77 1016.7
20260507172354 69 350 2.6 10.4 0.00 0.02 0.00 78 1017.0
20260507171358 69 7 4.3 10.4 0.00 0.02 0.00 78 1017.0
20260507170340 69 345 4.3 11.3 0.00 0.02 0.00 78 1017.2
20260507165327 68 4 4.3 8.7 0.00 0.03 0.00 80 1017.2
20260507164338 67 350 4.3 12.2 0.00 0.03 0.00 80 1017.2
20260507163322 68 306 4.3 13.0 0.00 0.03 0.00 79 1017.3
20260507162329 67 9 7.0 13.0 0.00 0.03 0.00 79 1017.1
20260507161335 67 359 0.9 12.2 0.00 0.03 0.00 81 1017.0
20260507160359 66 31 2.6 9.6 0.00 0.03 0.00 81 1017.0
20260507155344 66 33 2.6 11.3 0.00 0.03 0.00 81 1016.8
20260507154329 66 36 4.3 12.2 0.00 0.03 0.00 81 1016.6
20260507153334 65 340 5.2 11.3 0.00 0.03 0.00 82 1016.6
20260507152326 65 300 4.3 10.4 0.00 0.03 0.00 83 1016.7
20260507151335 64 16 3.5 9.6 0.00 0.03 0.00 83 1016.8
20260507150341 64 340 2.6 9.6 0.00 0.03 0.00 84 1017.0
20260507145329 64 340 4.3 11.3 0.00 0.03 0.00 84 1017.2
20260507144335 64 47 3.5 11.3 0.00 0.03 0.00 85 1016.9
20260507143339 64 345 2.6 11.3 0.00 0.03 0.00 87 1017.0
20260507142325 63 355 4.3 10.4 0.00 0.03 0.00 87 1016.6
20260507141336 63 350 5.2 15.6 0.00 0.03 0.00 87 1016.3
20260507140342 64 39 5.2 13.9 0.00 0.03 0.00 87 1016.1
20260507135328 64 15 7.0 17.4 0.00 0.03 0.00 88 1015.8
20260507134335 63 310 4.3 13.0 0.00 0.03 0.00 89 1015.7
20260507133339 63 327 5.2 13.0 0.00 0.03 0.00 89 1016.2
20260507132326 63 49 4.3 10.4 0.00 0.03 0.00 89 1016.3
20260507131336 64 79 5.2 12.2 0.00 0.03 0.00 89 1016.4
20260507130339 64 350 6.1 15.6 0.00 0.03 0.00 89 1016.4
20260507125327 64 298 4.3 10.4 0.00 0.03 0.00 89 1016.7
20260507124334 65 350 2.6 13.9 0.00 0.03 0.00 89 1016.7
20260507123338 65 345 4.3 9.6 0.00 0.03 0.00 89 1016.5
20260507122323 65 321 2.6 11.3 0.00 0.03 0.00 89 1016.5
20260507121331 65 345 3.5 13.0 0.00 0.03 0.00 88 1016.0
20260507120335 65 323 3.5 10.4 0.00 0.03 0.00 88 1015.6
20260507115326 65 329 3.5 8.7 0.00 0.03 0.00 88 1015.4
20260507114334 65 335 4.3 11.3 0.00 0.03 0.00 88 1014.9
20260507113338 65 340 4.3 12.2 0.00 0.03 0.00 88 1014.7
20260507112325 65 340 5.2 10.4 0.00 0.03 0.00 87 1015.2
20260507111331 65 356 2.6 8.7 0.00 0.03 0.00 87 1015.1
20260507110355 65 360 3.5 9.6 0.00 0.03 0.00 87 1015.0
20260507105324 65 340 2.6 9.6 0.00 0.03 0.00 87 1014.6
20260507104350 65 323 1.7 5.2 0.00 0.03 0.00 87 1014.6
20260507103332 65 327 2.6 7.8 0.00 0.03 0.00 86 1014.3
20260507102338 65 354 1.7 8.7 0.00 0.03 0.00 86 1014.7
20260507101324 65 345 1.7 9.6 0.00 0.03 0.00 86 1014.4
20260507100332 65 340 2.6 7.8 0.00 0.03 0.00 86 1014.4
20260507095340 65 357 2.6 7.8 0.00 0.03 0.00 86 1014.1
20260507094327 65 9 1.7 8.7 0.00 0.03 0.00 86 1014.1
20260507093350 65 327 2.6 7.0 0.00 0.03 0.00 86 1013.9